This is the latest recevied weather packets stored in our database for station/object SV9TNF-56. If no packets are shown the sender has not sent any weather packets the latest 10 day(s).
| Time | Temp. | Humidity | Pressure | Rain* | Wind** | Luminosity | Snow |
|---|---|---|---|---|---|---|---|
| 1788080835 | 25.56° C | 57% | 1019.6 hPa | 0 mm | 12.96 m/s, 61° | - | - |
| 1788080535 | 25.56° C | 58% | 1019.6 hPa | 0 mm | 0 m/s | - | - |
| 1788080235 | 25.56° C | 57% | 1020 hPa | 0 mm | 4.92 m/s, 180° | - | - |
| 1788079935 | 25.56° C | 58% | 1019.6 hPa | 0 mm | 13.41 m/s, 252° | - | - |
| 1788079635 | 25.56° C | 62% | 1019.6 hPa | 0 mm | 9.83 m/s, 222° | - | - |
| 1788079335 | 25.56° C | 60% | 1019.6 hPa | 0 mm | 4.47 m/s, 162° | - | - |
| 1788079035 | 25.56° C | 59% | 1019.6 hPa | 0 mm | 5.36 m/s, 134° | - | - |
| 1788078735 | 25.56° C | 60% | 1019.6 hPa | 0 mm | 9.83 m/s, 114° | - | - |
| 1788078435 | 25.56° C | 62% | 1020 hPa | 0 mm | 5.81 m/s, 169° | - | - |
| 1788078134 | 25.56° C | 62% | 1019.6 hPa | 0 mm | 12.96 m/s, 178° | - | - |
| 1788077834 | 25.56° C | 61% | 1019.6 hPa | 0 mm | 13.41 m/s, 212° | - | - |
| 1788077534 | 25.56° C | 62% | 1019.6 hPa | 0 mm | 4.92 m/s, 250° | - | - |
| 1788077234 | 25.56° C | 63% | 1019.6 hPa | 0 mm | 2.68 m/s, 265° | - | - |
| 1788076934 | 25.56° C | 63% | 1019.6 hPa | 0 mm | 5.81 m/s, 233° | - | - |
| 1788076634 | 25.56° C | 63% | 1019.3 hPa | 0 mm | 6.26 m/s, 191° | - | - |
| 1788076334 | 25° C | 63% | 1019.6 hPa | 0 mm | 4.47 m/s, 136° | - | - |
| 1788076034 | 25° C | 64% | 1019.3 hPa | 0 mm | 7.6 m/s, 256° | - | - |
| 1788075734 | 25° C | 65% | 1019.6 hPa | 0 mm | 7.6 m/s, 279° | - | - |
| 1788075434 | 25° C | 67% | 1019.6 hPa | 0 mm | 6.26 m/s, 212° | - | - |
| 1788075133 | 25° C | 67% | 1019.3 hPa | 0 mm | 14.75 m/s, 252° | - | - |
| 1788074833 | 24.44° C | 67% | 1019.6 hPa | 0 mm | 13.86 m/s, 234° | - | - |
| 1788074533 | 24.44° C | 72% | 1019.3 hPa | 0 mm | 8.49 m/s, 294° | - | - |
| 1788074233 | 24.44° C | 73% | 1019.3 hPa | 0 mm | 16.99 m/s, 275° | - | - |
| 1788073933 | 24.44° C | 72% | 1019.6 hPa | 0 mm | 17.88 m/s, 277° | - | - |
| 1788073633 | 25° C | 71% | 1019.6 hPa | 0 mm | 20.56 m/s, 272° | - | - |
* Rain latest hour (hover to see other rain measurements)
** Current wind speed in m/s (hover to see current wind gust speed)